KB1DML-4 Weather Reports


time (UTC)temp
F
wind
direction
speed
knots
gust
knots
rain 1hr
in
rain 24hr
in
rain mn
in
humidity
%
barometer
mb
20260505003518 66 158 3.5 6.1 0.00 0.00 0.00 45 1003.5
20260505003038 66 158 2.6 7.0 0.00 0.00 0.00 44 1003.5
20260505002524 67 158 4.3 7.0 0.00 0.00 0.00 42 1003.0
20260505002016 67 158 1.7 4.3 0.00 0.00 0.00 39 1003.0
20260505001524 68 0.0 1.7 0.00 0.00 0.00 39 1003.0
20260505001015 68 203 0.9 1.7 0.00 0.00 0.00 39 1002.6
20260505000516 68 0.0 1.7 0.00 0.00 0.00 39 1002.6
20260505000038 68 225 0.9 1.7 0.00 0.00 0.00 38 1002.6
20260504235518 68 203 0.9 1.7 0.00 0.00 0.00 38 1002.5
20260504235018 69 203 0.9 1.7 0.00 0.00 0.00 37 1002.5
20260504234537 69 203 0.9 1.7 0.00 0.00 0.00 37 1002.5
20260504234024 69 203 0.9 1.7 0.00 0.00 0.00 37 1002.2
20260504233544 69 225 0.9 1.7 0.00 0.00 0.00 37 1002.2
20260504233016 69 225 0.9 2.6 0.00 0.00 0.00 36 1002.2
20260504232515 70 203 0.9 2.6 0.00 0.00 0.00 36 1002.0
20260504232017 70 203 0.9 3.5 0.00 0.00 0.00 36 1002.0
20260504231556 70 225 0.9 2.6 0.00 0.00 0.00 36 1002.0
20260504231018 70 203 0.9 3.5 0.00 0.00 0.00 36 1001.9
20260504230524 70 248 0.9 1.7 0.00 0.00 0.00 35 1001.9
20260504230017 70 225 0.9 2.6 0.00 0.00 0.00 35 1001.9
20260504225517 71 225 0.9 2.6 0.00 0.00 0.00 35 1001.7
20260504225023 71 225 0.9 3.5 0.00 0.00 0.00 35 1001.7
20260504224516 71 225 1.7 4.3 0.00 0.00 0.00 34 1001.7
20260504224024 71 203 1.7 7.0 0.00 0.00 0.00 35 1001.5
20260504223524 71 225 1.7 4.3 0.00 0.00 0.00 33 1001.5
20260504223015 71 203 1.7 4.3 0.00 0.00 0.00 34 1001.5
20260504222536 71 225 1.7 4.3 0.00 0.00 0.00 34 1001.5
20260504222016 71 0.0 1.7 0.00 0.00 0.00 35 1001.5
20260504221515 71 270 0.9 3.5 0.00 0.00 0.00 33 1001.5
20260504221017 71 270 1.7 3.5 0.00 0.00 0.00 34 1001.6
20260504220517 71 225 0.9 4.3 0.00 0.00 0.00 35 1001.5
20260504220044 71 203 2.6 4.3 0.00 0.00 0.00 33 1001.5
20260504215523 71 225 0.9 2.6 0.00 0.00 0.00 34 1001.5
20260504215023 71 248 1.7 4.3 0.00 0.00 0.00 34 1001.5
20260504214517 71 203 2.6 5.2 0.00 0.00 0.00 33 1001.5
20260504214037 71 203 1.7 4.3 0.00 0.00 0.00 34 1001.5
20260504213524 71 315 2.6 7.8 0.00 0.00 0.00 36 1001.5
20260504213015 71 270 1.7 3.5 0.00 0.00 0.00 34 1001.5
20260504212516 71 248 1.7 3.5 0.00 0.00 0.00 33 1001.5
20260504212017 71 315 4.3 16.5 0.00 0.00 0.00 34 1001.5
20260504211524 72 270 1.7 3.5 0.00 0.00 0.00 34 1001.5
20260504211024 71 270 0.9 2.6 0.00 0.00 0.00 35 1001.5
20260504210516 71 270 2.6 6.1 0.00 0.00 0.00 33 1001.5
20260504210024 71 270 2.6 6.1 0.00 0.00 0.00 33 1001.5
20260504205537 71 225 1.7 3.5 0.00 0.00 0.00 34 1001.5
20260504205015 71 315 2.6 9.6 0.00 0.00 0.00 35 1001.5
20260504204518 71 270 1.7 4.3 0.00 0.00 0.00 34 1001.5
20260504204015 71 315 4.3 13.9 0.00 0.00 0.00 34 1001.5
20260504203516 72 293 4.3 14.8 0.00 0.00 0.00 32 1001.5
20260504203017 72 225 2.6 6.1 0.00 0.00 0.00 31 1001.5
20260504202517 72 203 2.6 4.3 0.00 0.00 0.00 31 1001.5
20260504202023 72 225 2.6 4.3 0.00 0.00 0.00 32 1001.5
20260504201517 72 248 1.7 4.3 0.00 0.00 0.00 33 1001.5
20260504201017 71 248 1.7 4.3 0.00 0.00 0.00 32 1001.5
20260504200517 71 225 1.7 3.5 0.00 0.00 0.00 32 1001.5
20260504200043 71 203 1.7 3.5 0.00 0.00 0.00 32 1001.5
20260504195524 71 225 2.6 6.1 0.00 0.00 0.00 31 1001.6
20260504195017 71 203 2.6 7.8 0.00 0.00 0.00 31 1001.6
20260504194516 71 225 2.6 5.2 0.00 0.00 0.00 31 1001.6
20260504194015 71 225 3.5 9.6 0.00 0.00 0.00 32 1001.7
20260504193537 71 248 1.7 5.2 0.00 0.00 0.00 33 1001.7
20260504193017 71 270 1.7 5.2 0.00 0.00 0.00 33 1001.7
20260504192517 71 248 1.7 7.8 0.00 0.00 0.00 31 1001.9
20260504192023 70 270 1.7 7.0 0.00 0.00 0.00 32 1001.9
20260504191544 70 270 2.6 10.4 0.00 0.00 0.00 31 1001.9
20260504191015 70 248 3.5 7.8 0.00 0.00 0.00 31 1002.0
20260504190517 71 248 2.6 6.1 0.00 0.00 0.00 31 1002.0
20260504190023 70 315 4.3 13.0 0.00 0.00 0.00 33 1002.0
20260504185515 71 203 3.5 8.7 0.00 0.00 0.00 32 1002.0
20260504185015 71 203 3.5 6.1 0.00 0.00 0.00 31 1002.0
20260504184603 70 225 3.5 6.1 0.00 0.00 0.00 32 1002.0
20260504184015 70 225 2.6 6.1 0.00 0.00 0.00 32 1002.1
20260504183517 70 270 3.5 8.7 0.00 0.00 0.00 32 1002.1
20260504183017 70 248 2.6 7.8 0.00 0.00 0.00 32 1002.1
20260504182517 70 225 3.5 7.0 0.00 0.00 0.00 31 1002.0
20260504182017 70 270 2.6 7.0 0.00 0.00 0.00 34 1002.0
20260504181537 70 225 3.5 9.6 0.00 0.00 0.00 32 1002.0
20260504181017 70 270 1.7 6.1 0.00 0.00 0.00 32 1002.4
20260504180537 69 203 2.6 4.3 0.00 0.00 0.00 33 1002.4
20260504180015 69 270 2.6 6.1 0.00 0.00 0.00 32 1002.4
20260504175515 69 203 4.3 10.4 0.00 0.00 0.00 32 1002.2
20260504175017 69 225 3.5 7.0 0.00 0.00 0.00 33 1002.2
20260504174523 69 225 2.6 4.3 0.00 0.00 0.00 35 1002.2
20260504174017 68 225 3.5 7.8 0.00 0.00 0.00 33 1002.4
20260504173523 68 248 3.5 7.8 0.00 0.00 0.00 32 1002.4
20260504173037 68 203 3.5 8.7 0.00 0.00 0.00 33 1002.4
20260504172517 68 225 3.5 7.8 0.00 0.00 0.00 33 1002.5
20260504172015 68 203 3.5 7.0 0.00 0.00 0.00 33 1002.5
20260504171523 67 248 3.5 7.0 0.00 0.00 0.00 35 1002.5
20260504171023 67 225 3.5 7.0 0.00 0.00 0.00 34 1002.7
20260504170535 67 270 4.3 8.7 0.00 0.00 0.00 33 1002.7
20260504151019 64 203 3.5 8.7 0.00 0.00 0.00 39 1003.8
20260504150605 64 203 3.5 6.1 0.00 0.00 0.00 39 1003.8
20260504141025 62 203 0.9 2.6 0.00 0.00 0.00 42 1004.6
20260504140525 62 248 1.7 4.3 0.00 0.00 0.00 43 1004.6
20260504130525 58 225 2.6 6.1 0.00 0.00 0.00 47 1005.4
20260504110517 47 0.0 0.9 0.00 0.00 0.00 65 1006.1
20260504100525 45 158 0.9 1.7 0.00 0.00 0.00 69 1006.1
20260504081518 43 0.0 0.9 0.00 0.00 0.00 74 1005.9
20260504081024 43 0.0 0.9 0.00 0.00 0.00 74 1006.0
20260504080518 43 0.0 0.9 0.00 0.00 0.00 74 1006.0
20260504050518 39 0.0 0.0 0.00 0.00 0.00 78 1005.8
20260504050024 39 0.0 0.0 0.00 0.00 0.00 76 1005.8
20260504045516 39 0.0 0.0 0.00 0.00 0.00 76 1005.9
20260504045044 39 0.0 0.0 0.00 0.00 0.00 78 1005.9
20260504044518 39 0.0 0.0 0.00 0.00 0.00 78 1005.9
20260504044018 39 0.0 0.0 0.00 0.00 0.00 77 1005.8
20260504043516 39 0.0 0.0 0.00 0.00 0.00 75 1005.8
20260504043016 39 0.0 0.0 0.00 0.00 0.00 72 1005.8
20260504042536 39 0.0 0.0 0.00 0.00 0.00 72 1005.7
20260504042036 39 0.0 0.0 0.00 0.00 0.00 72 1005.7
20260504041516 39 0.0 0.0 0.00 0.00 0.00 74 1005.7
20260504041016 39 0.0 0.0 0.00 0.00 0.00 75 1005.6
20260504040516 39 0.0 0.0 0.00 0.00 0.00 72 1005.6
20260504040016 40 0.0 0.0 0.00 0.00 0.00 72 1005.6
20260504035518 40 0.0 0.0 0.00 0.00 0.00 73 1005.5
20260504035017 40 0.0 0.0 0.00 0.00 0.00 74 1005.5
20260504034517 40 0.0 0.0 0.00 0.00 0.00 74 1005.5
20260504034018 40 0.0 0.0 0.00 0.00 0.00 71 1005.5
20260504033519 40 0.0 0.0 0.00 0.00 0.00 71 1005.5
20260504033037 40 0.0 0.0 0.00 0.00 0.00 71 1005.5
20260504032525 40 0.0 0.0 0.00 0.00 0.00 72 1005.5
20260504032025 40 0.0 0.0 0.00 0.00 0.00 73 1005.5
20260504031525 40 0.0 0.0 0.00 0.00 0.00 73 1005.5
20260504031025 40 0.0 0.0 0.00 0.00 0.00 75 1005.4
20260504030524 40 0.0 0.0 0.00 0.00 0.00 76 1005.4
20260504030025 41 0.0 0.0 0.00 0.00 0.00 76 1005.4
20260504025516 41 0.0 0.0 0.00 0.00 0.00 77 1005.4
20260504025016 41 0.0 0.0 0.00 0.00 0.00 75 1005.4
20260504024538 41 0.0 0.0 0.00 0.00 0.00 76 1005.4
20260504024016 41 0.0 0.0 0.00 0.00 0.00 75 1005.4
20260504023605 41 0.0 0.0 0.00 0.00 0.00 74 1005.4
20260504023024 41 0.0 0.0 0.00 0.00 0.00 74 1005.4
20260504022524 41 0.0 0.0 0.00 0.00 0.00 75 1005.1
20260504022025 41 0.0 0.0 0.00 0.00 0.00 74 1005.1
20260504021545 42 0.0 0.0 0.00 0.00 0.00 71 1005.1
20260504021018 42 0.0 0.0 0.00 0.00 0.00 70 1005.1
20260504020536 42 0.0 0.0 0.00 0.00 0.00 68 1005.0
20260504020016 42 0.0 0.0 0.00 0.00 0.00 67 1005.0
20260504015516 43 0.0 0.0 0.00 0.00 0.00 67 1005.0
20260504015016 43 0.0 0.0 0.00 0.00 0.00 67 1005.0
20260504014545 43 0.0 0.0 0.00 0.00 0.00 66 1005.0
20260504014018 43 0.0 0.0 0.00 0.00 0.00 64 1004.9
20260504013525 44 0.0 0.0 0.00 0.00 0.00 65 1004.9
20260504013025 44 0.0 0.0 0.00 0.00 0.00 66 1004.9
20260504012518 45 0.0 0.0 0.00 0.00 0.00 65 1004.8
20260504012045 45 0.0 0.0 0.00 0.00 0.00 63 1004.8
20260504011517 46 0.0 0.0 0.00 0.00 0.00 62 1004.8
20260504011016 47 0.0 0.0 0.00 0.00 0.00 61 1004.5
20260504010516 47 0.0 0.0 0.00 0.00 0.00 60 1004.5
20260504010018 47 0.0 0.0 0.00 0.00 0.00 56 1004.5
20260504005538 47 0.0 0.0 0.00 0.00 0.00 54 1004.5
20260504005024 48 0.0 0.0 0.00 0.00 0.00 54 1004.5
20260504004518 48 0.0 0.0 0.00 0.00 0.00 55 1004.5
20260504004016 48 0.0 0.0 0.00 0.00 0.00 52 1004.2